Hourly Data Report for October 25, 2015

All times are specified in Local Standard Time (LST). Add 1 hour to adjust for Daylight Saving Time where and when it is observed.

KUGLUKTUK A
NUNAVUT

67°49'00.000" N
115°08'38.000" W
22.60 m
2300903
71938
YCO

Download Data

Hourly Data (October 2015)
Hourly Data Report for October 25, 2015
Temp Definition
°C
Dew Point Temp Definition
°C
Rel Hum Definition
%
Wind Dir Definition
10's deg

Wind Spd Definition
km/h
Visibility Definition
km
Stn Press Definition
kPa
Hmdx Definition


Wind Chill Definition


Weather Definition


TIME
00:00 Legend Double Dagger -17.5 -21.7 70 23 27 19.3 102.43   -29 Snow
01:00 Legend Double Dagger -17.5 -21.1 74 22 26 19.3 102.43   -29 Snow
02:00 Legend Double Dagger -16.8 -21.2 69 24 26 19.3 102.41   -28 Snow
03:00 Legend Double Dagger -17.6 -20.9 76 23 29 24.1 102.39   -29 Snow
04:00 Legend Double Dagger -18.3 -22.0 73 23 25 24.1 102.37   -29 LegendNANA
05:00 Legend Double Dagger -20.0 -22.9 78 23 28 24.1 102.37   -32 Mainly Clear
06:00 Legend Double Dagger -20.8 -23.8 77 23 24 24.1 102.35   -32 LegendNANA
07:00 Legend Double Dagger -20.8 -23.5 79 18 12 24.1 102.34   -29 LegendNANA
08:00 Legend Double Dagger -21.4 -24.4 77 22 23 24.1 102.32   -33 Clear
09:00 Legend Double Dagger -21.1 -23.8 79 22 28 24.1 102.29   -34 LegendNANA
10:00 Legend Double Dagger -20.3 -23.8 74 22 15 24.1 102.29   -29 LegendNANA
11:00 Legend Double Dagger -19.2 -22.6 75 20 13 24.1 102.26   -27 Clear
12:00 Legend Double Dagger -17.8 -21.9 71 22 21 24.1 102.22   -28 LegendNANA
13:00 Legend Double Dagger -16.8 -21.1 70 22 19 24.1 102.21   -26 LegendNANA
14:00 Legend Double Dagger -16.7 -21.0 70 22 17 24.1 102.18   -26 Clear
15:00 Legend Double Dagger -16.9 -20.8 72 21 18 24.1 102.14   -26 LegendNANA
16:00 Legend Double Dagger -18.5 -21.8 76 22 20 24.1 102.10   -29 LegendNANA
17:00 Legend Double Dagger -18.7 -21.3 80 21 17 24.1 102.05   -28 Clear
18:00 Legend Double Dagger -19.1 -21.3 83 22 11 24.1 102.00   -27 LegendNANA
19:00 Legend Double Dagger -19.0 -21.2 83 23 12 24.1 101.99   -27 LegendNANA
20:00 Legend Double Dagger -18.9 -21.1 83 20 4 24.1 101.94   -22 Clear
21:00 Legend Double Dagger -19.9 -21.8 85 29 4 24.1 101.91   -23 LegendNANA
22:00 Legend Double Dagger -19.3 -21.5 83 23 6 24.1 101.88   -24 LegendNANA
23:00 Legend Double Dagger -19.5 -21.3 86 23 10 24.1 101.85   -27 Clear

Notes on Data Quality.

Legend

  • E = Estimated
  • M = Missing
  • NA = Not Available
  • ‡ = Partner data that is not subject to review by the National Climate Archives
Date modified: